PA5W Weather Reports


time (UTC)temp
C
wind
direction
speed
KPH
gust
KPH
rain 1hr
cm
rain 24hr
cm
rain mn
cm
humidity
%
barometer
mb
20260506103025 13 55 8.0 22.5 0.00 0.00 0.00 53 1007.8
20260506101542 13 13 12.9 32.2 0.00 0.00 0.00 53 1007.8
20260506100019 12 32 14.5 33.8 0.00 0.00 0.00 52 1007.7
20260506094518 12 40 9.7 22.5 0.00 0.00 0.00 58 1007.6
20260506093015 12 80 12.9 25.7 0.00 0.00 0.00 62 1007.5
20260506091519 12 30 12.9 20.9 0.00 0.00 0.00 68 1007.6
20260506090011 12 5 11.3 24.1 0.00 0.00 0.00 67 1007.6
20260506084517 12 15 12.9 25.7 0.00 0.00 0.00 68 1007.4
20260506083008 11 23 12.9 22.5 0.00 0.00 0.00 74 1007.4
20260506081605 11 26 8.0 24.1 0.00 0.00 0.00 77 1007.3
20260506061516 9 42 12.9 22.5 0.00 0.00 0.00 89 1007.0
20260506044602 9 342 12.9 20.9 0.00 0.00 0.00 88 1007.0
20260506043056 9 26 9.7 17.7 0.00 0.00 0.00 88 1007.0
20260506041605 9 360 6.4 17.7 0.00 0.00 0.00 88 1006.9
20260506040054 9 355 8.0 17.7 0.00 0.00 0.00 87 1006.9
20260506034555 9 5 8.0 16.1 0.00 0.00 0.00 86 1007.0
20260506033055 9 340 11.3 22.5 0.00 0.00 0.00 86 1007.0
20260506031554 9 342 11.3 20.9 0.00 0.00 0.00 86 1007.2
20260506030048 9 20 9.7 20.9 0.00 0.00 0.00 85 1007.3
20260506024545 9 355 9.7 20.9 0.00 0.00 0.00 85 1007.5
20260506023044 9 5 11.3 24.1 0.00 0.00 0.00 86 1007.5
20260506021544 9 350 8.0 22.5 0.00 0.00 0.00 86 1007.5
20260506020042 9 17 8.0 24.1 0.00 0.00 0.00 86 1007.6
20260506014548 10 360 9.7 22.5 0.00 0.00 0.00 85 1007.6
20260506013040 10 350 8.0 20.9 0.00 0.00 0.00 84 1007.7
20260506011541 10 350 6.4 19.3 0.00 0.00 0.00 84 1007.8
20260506010036 10 9 8.0 16.1 0.00 0.00 0.00 84 1007.9
20260506004540 10 5 8.0 20.9 0.00 0.00 0.00 84 1008.0
20260506003032 10 34 8.0 19.3 0.00 0.00 0.00 83 1008.1
20260506001531 10 15 9.7 22.5 0.00 0.00 0.00 83 1008.2
20260506000037 9 10 9.7 22.5 0.00 0.00 0.00 83 1008.3
20260505234528 9 325 12.9 19.3 0.00 0.00 0.00 83 1008.4
20260505233027 9 341 12.9 19.3 0.00 0.00 0.00 83 1008.4
20260505231527 9 22 11.3 19.3 0.00 0.00 0.00 83 1008.4
20260505230031 9 355 9.7 17.7 0.00 0.00 0.00 84 1008.5
20260505224534 9 12 8.0 19.3 0.00 0.00 0.00 85 1008.7
20260505223030 9 355 8.0 16.1 0.00 0.00 0.00 85 1008.7
20260505221520 9 360 8.0 19.3 0.00 0.00 0.00 85 1008.9
20260505220032 9 25 11.3 20.9 0.00 0.00 0.00 85 1009.0
20260505214529 9 11 12.9 20.9 0.00 0.00 0.00 86 1009.0
20260505213021 9 5 8.0 19.3 0.00 0.00 0.00 86 1009.1
20260505211515 9 9 8.0 17.7 0.00 0.00 0.00 85 1009.1
20260505210016 10 40 8.0 19.3 0.00 0.00 0.00 85 1009.3
20260505204523 10 49 6.4 19.3 0.00 0.00 0.00 84 1009.5
20260505203013 10 47 4.8 25.7 0.00 0.00 0.00 84 1009.6
20260505201516 10 29 9.7 20.9 0.00 0.00 0.00 83 1009.5
20260505200013 10 45 9.7 20.9 0.00 0.00 0.00 83 1009.3
20260505194512 10 22 8.0 16.1 0.00 0.00 0.00 81 1009.1
20260505193033 10 19 9.7 19.3 0.00 0.00 0.00 80 1009.0
20260505191511 10 355 8.0 16.1 0.00 0.00 0.00 80 1008.9
20260505190024 10 34 9.7 17.7 0.00 0.00 0.00 78 1008.9
20260505184509 10 23 8.0 17.7 0.00 0.00 0.00 78 1008.9
20260505183016 10 23 8.0 19.3 0.00 0.00 0.00 78 1009.0
20260505181512 10 9 11.3 19.3 0.00 0.00 0.00 78 1008.9
20260505180012 11 16 11.3 22.5 0.00 0.00 0.00 77 1009.0
20260505174507 11 355 12.9 24.1 0.00 0.00 0.00 77 1009.0
20260505173007 11 23 12.9 20.9 0.00 0.00 0.00 76 1008.9
20260505171522 11 48 9.7 20.9 0.00 0.00 0.00 74 1008.9
20260505170012 12 44 11.3 17.7 0.00 0.00 0.00 73 1008.9
20260505164505 12 46 9.7 17.7 0.00 0.00 0.00 73 1008.9
20260505163004 12 47 14.5 25.7 0.00 0.00 0.00 71 1008.9
20260505161504 12 38 11.3 20.9 0.00 0.00 0.00 71 1008.9
20260505153002 12 23 11.3 22.5 0.00 0.00 0.00 71 1009.0
20260505151501 13 61 11.3 22.5 0.00 0.00 0.00 71 1009.1
20260505150116 13 27 12.9 24.1 0.00 0.00 0.00 70 1009.0
20260505140117 13 29 9.7 19.3 0.00 0.00 0.00 70 1009.3
20260505124547 13 37 9.7 20.9 0.00 0.00 0.00 69 1009.8
20260505123106 13 42 9.7 25.7 0.00 0.00 0.00 68 1009.7
20260505121546 13 341 14.5 24.1 0.00 0.00 0.00 68 1009.8
20260505120050 12 336 9.7 22.5 0.00 0.00 0.00 70 1009.8
20260505114552 12 49 11.3 19.3 0.00 0.00 0.00 71 1010.0
20260505113042 12 30 8.0 22.5 0.00 0.00 0.00 72 1010.0
20260505111539 12 22 9.7 22.5 0.00 0.00 0.00 73 1010.0